EDT,Max TemperatureF,Mean TemperatureF,Min TemperatureF,Max Dew PointF,MeanDew PointF,Min DewpointF,Max Humidity, Mean Humidity, Min Humidity, Max Sea Level PressureIn, Mean Sea Level PressureIn, Min Sea Level PressureIn, Max VisibilityMiles, Mean VisibilityMiles, Min VisibilityMiles, Max Wind SpeedMPH, Mean Wind SpeedMPH, Max Gust SpeedMPH,PrecipitationIn, CloudCover, Events, WindDirDegrees
2013-9-1,83,75,66,73,68,64,100,78,55,29.89,29.85,29.81,10,5,0,7,1,10,T,7,Fog-Rain,104
2013-9-2,80,73,65,72,69,64,100,88,76,29.85,29.79,29.71,10,7,1,16,3,23,1.12,7,Rain-Thunderstorm,157
2013-9-3,75,66,57,64,61,55,100,77,53,29.85,29.77,29.73,10,6,0,12,2,15,0.00,6,Fog,250
2013-9-4,77,67,56,57,54,46,100,68,36,29.92,29.89,29.84,10,10,10,14,4,21,0.00,3,,265
2013-9-5,69,57,44,59,47,35,97,65,32,30.19,30.01,29.88,10,10,10,15,4,22,0.01,4,Rain,336
2013-9-6,69,53,37,47,39,35,100,66,32,30.29,30.22,30.11,10,6,0,12,1,16,0.00,3,Fog-Snow,250
2013-9-7,67,55,43,60,50,42,100,81,62,30.09,30.00,29.86,10,10,3,6,1,7,0.02,5,Rain,242
2013-9-8,66,54,42,57,47,35,100,67,34,30.14,29.89,29.79,10,10,10,18,5,29,T,4,,333
2013-9-9,68,52,36,52,43,36,100,73,45,30.26,30.18,30.12,10,10,10,12,2,15,0.00,1,,138
2013-9-10,71,60,48,67,60,47,100,92,84,30.14,30.07,30.02,10,10,5,7,1,9,0.12,7,Rain,293
2013-9-11,92,79,66,74,68,64,100,72,44,30.08,30.02,29.93,10,7,2,36,3,46,0.11,5,Rain-Thunderstorm,237
2013-9-12,79,72,64,71,67,64,100,88,76,29.93,29.80,29.67,10,6,1,14,2,22,0.67,6,Rain-Thunderstorm,170
2013-9-13,65,60,54,66,60,49,100,87,73,29.83,29.69,29.62,10,7,0,13,3,16,0.41,8,Fog-Rain,313
2013-9-14,61,55,48,52,48,46,100,80,60,30.08,29.95,29.84,10,10,9,16,5,23,0.00,7,,287
2013-9-15,71,56,40,52,46,39,100,70,40,30.18,30.12,30.06,10,5,0,9,2,15,0.00,2,Fog,198
2013-9-16,63,52,40,53,46,33,100,78,55,30.32,30.13,30.03,10,10,10,15,4,22,0.01,5,Rain,307
2013-9-17,65,49,33,46,38,32,96,65,34,30.48,30.40,30.34,10,10,10,10,2,16,0.00,0,,24
2013-9-18,72,55,37,53,43,37,100,69,38,30.36,30.28,30.15,10,4,0,8,1,10,0.00,3,Fog,160
2013-9-19,76,59,42,55,47,39,100,65,29,30.19,30.14,30.05,10,5,0,7,1,10,0.00,2,Fog,133
2013-9-20,78,61,44,57,48,44,100,68,36,30.15,30.08,29.99,10,5,0,10,2,13,0.00,3,Fog,154
2013-9-21,73,60,46,63,55,45,100,77,53,30.01,29.87,29.66,10,8,0,18,7,25,0.14,5,Fog-Rain,180
2013-9-22,66,57,47,63,52,38,100,78,56,29.90,29.70,29.58,10,9,2,15,6,23,0.37,7,Rain,272
2013-9-23,60,50,39,39,37,34,85,65,44,30.06,29.98,29.90,10,10,10,16,5,23,0.00,4,,315
2013-9-24,64,55,45,45,38,36,86,60,34,30.03,29.96,29.88,10,10,10,17,5,23,0.00,5,,296
2013-9-25,68,55,41,49,46,41,100,75,49,30.03,29.95,29.90,10,10,10,13,2,18,0.00,3,,38
2013-9-26,66,53,40,46,43,39,100,73,45,30.18,30.08,30.02,10,9,0,12,2,17,0.00,4,Fog,2
2013-9-27,64,54,43,51,47,44,100,78,56,30.32,30.26,30.18,10,10,10,6,1,10,0.00,5,,322
2013-9-28,73,57,41,53,45,41,100,67,33,30.40,30.33,30.28,10,4,0,8,1,12,0.00,4,Fog,103
2013-9-29,71,57,42,54,46,42,100,72,44,30.29,30.22,30.10,10,5,0,8,1,13,0.00,4,Fog,148
2013-9-30,72,58,43,50,46,43,100,68,35,30.14,30.08,29.99,10,5,0,8,1,10,0.00,3,Fog,40